Regional Weather Roundup
Issued by NWS

Home | Current Version | Previous Version | Text Only | Print | Product List | Glossary On
Versions: 1 2 3 4 5 6 7 8 9 10 11 12 13 14 15 16 17 18 19 20 21 22 23 24 25 26 27 28 29 30 31 32 33 34 35 36 37 38 39 40 41 42 43 44 45 46 47 48 49 50
000
ASUS44 KJAN 250410
RWRMS

MISSISSIPPI HOURLY WEATHER ROUNDUP
NATIONAL WEATHER SERVICE JACKSON MS
1100 PM CDT MON JUL 24 2017

NOTE: "FAIR: INDICATES FEW OR NO CLOUDS BELOW 12,000 FEET WITH NO
SIGNIFICANT WEATHER AND/OR OBSTRUCTIONS TO VISIBILITY.

MSZ001>002-007>008-010>013-018>021-025>028-034>036-250500-
NORTHWEST MISSISSIPPI

CITY           SKY/WX    TMP DP  RH WIND       PRES   REMARKS
BATESVILLE     FAIR      75  73  91 CALM      30.00R
CLARKSDALE       N/A     77  77 100 S5        29.99R
CLEVELAND      FAIR      76  76 100 SE6       30.01R
GREENWOOD      CLOUDY    74  73  97 SW5       30.01F
GREENVILLE     CLEAR     74  71  91 S5        30.00R
OXFORD         FAIR      75  70  83 W3        30.02R
TUNICA           N/A     75  72  88 CALM      29.99S
WINONA         FAIR      73  73 100 S5        30.01S
$$

MSZ003>006-009-014>017-022>024-029>033-037>039-250500-
NORTHEAST MISSISSIPPI

CITY           SKY/WX    TMP DP  RH WIND       PRES   REMARKS
COLUMBUS AFB   CLOUDY    73  73 100 NE3       30.02R
CORINTH        FAIR      75  70  83 CALM      30.00S
GOLDN TRIANGLE CLOUDY    75  66  73 S10       29.97S
STARKVILLE     FAIR      73  72  94 CALM      30.02R
TUPELO         CLOUDY    78  71  79 S6        29.99F
$$

MSZ040-058-250500-
CENTRAL MISSISSIPPI

CITY           SKY/WX    TMP DP  RH WIND       PRES   REMARKS
JACKSON INTL   CLOUDY    76  75  97 S6        30.05R
JACKSON HAWKNS MOCLDY    78  76  93 S5        30.04F
MADISON        FAIR      73  72  94 S3        30.04S
MERIDIAN KEY   CLOUDY    76  75  97 SW6       30.03F
MERIDIAN NAS   CLOUDY    77  71  82 VRB3      30.03S
RAYMOND        MOCLDY    75  75 100 CALM      30.04R FOG
$$

MSZ059>079-250500-
SOUTH MISSISSIPPI

CITY           SKY/WX    TMP DP  RH WIND       PRES   REMARKS
COLUMBIA       FAIR      73  72  94 CALM      30.09R
HATTIESBURG    CLOUDY    74  74 100 CALM      30.06S
LAUREL         FAIR      73  73 100 CALM      30.07R
MCCOMB         CLOUDY    76  74  93 S6        30.06R
NATCHEZ        NOT AVBL
PINE BELT      CLOUDY    73  72  94 CALM      30.07S
$$

MSZ080>082-250500-
COASTAL MISSISSIPPI

CITY           SKY/WX    TMP DP  RH WIND       PRES   REMARKS
BILOXI         CLEAR     76  74  94 CALM      30.06R
PASCAGOULA     CLEAR     74  71  91 CALM      30.07R
GULFPORT       CLEAR     75  74  96 CALM      30.06R
$$

LAZ007>009-015>016-023>026-250500-
NORTHEAST LOUISIANA

CITY           SKY/WX    TMP DP  RH WIND       PRES   REMARKS
BASTROP          N/A     78  77  98 CALM      30.03R
TALLULAH/VBURG PTCLDY    75  74  96 CALM      30.03R
VIDALIA        FAIR      75  74  98 S6        30.03R
$$



USA.gov is the U.S. government's official web portal to all federal, state and local government web resources and services.